C/2017 K6 ( Jacques )

Japanese version
Home page
Updated on August 6, 2017

---------------------------------------------------------------------

* Profile

Discovery Date May 29, 2017
Magnitude 17.5 mag
Discoverer Cristovao Jacques (SONEAR Observatory at Oliveira)

* Pictures

* Orbital Elements

Epoch 2018 Jan. 2.0 TT = JDT 2458120.5
T 2018 Jan. 3.23059 TT                                  MPCW
q   2.0011629            (2000.0)            P               Q
z  +0.0017186      Peri.  303.91542     +0.49591422     -0.22886406
 +/-0.0001335      Node    85.02168     +0.75179329     +0.59593514
e   0.9965608      Incl.   57.22910     -0.43459860     +0.76972888
From 78 observations 2017 May 29-July 4, mean residual 0".5.

* Finding Charts

* Magnitudes Graph

        m1 = 10.0 + 5 log d + 10.0 log r

---------------------------------------------------------------------

The orbital elements are published on M.P.E.C. 2017-N58.
The charts are made with StellaNavigator Ver.10 (AstroArts).
The magnitudes graphs are made with Comet for Windows.

---------------------------------------------------------------------

Copyright(C) Seiichi Yoshida (comet@aerith.net). All rights reserved.